{"data":{"norad_id":66490,"epoch":"2026-05-24T17:54:28.236096Z","epoch_age_seconds":93117,"freshness":"FRESH","line1":"1 66490U 25263F   26144.74616014  .00018693  00000+0  68688-3 0  9994","line2":"2 66490  43.0003 280.9234 0001244 272.7767  87.2942 15.27590314 30534","mean_motion":15.27590314,"eccentricity":0.0001244,"inclination_deg":43.0003,"raan_deg":280.9234,"arg_perigee_deg":272.7767,"mean_anomaly_deg":87.2942,"bstar":0.00068688,"rev_number":3053,"period_min":94.266112242448,"perigee_km":482.16468467856,"apogee_km":483.8717400954,"semimajor_km":6861.155212387,"source":"CELESTRAK","updated_at":"2026-05-25T13:38:21.242719Z"}}